DLH77X LEZL-EDDF

Flight info

Callsign DLH77X
Flight time N/A
Altitude 34000
Route HIJ DCT PARKA DCT TLD N858 DGO L176 CEGAM/N0401F220 L176 LUSEM/N0450F340 DCT LULUT/N0450F360 DCT ADABI DCT BOKNO DCT DIBES DCT VIQAQ DCT TSU UN858 OQQAL DCT RANUX/N0448F350 DCT VALEK DCT LUTAX UM163 DIK T856 NIVNU T847 IMCOM IMCOM1B
Aircraft A321/M-SDE2E3FGIJ1LORWXYZHB1/LB1

Departure

Time 2026-04-25 21:58
Airport Seville Airport (LEZL)

Arrival

Time N/A
Airport Frankfurt Main Airport (EDDF)
Time Latitude Longitude Altitude Speed Heading
2026-04-25 21:17 37.42214 -5.89948 96 ft 0 kts 315°
2026-04-25 21:47 37.42203 -5.89934 94 ft 4 kts 320°
2026-04-25 21:48 37.42181 -5.89915 92 ft 4 kts 334°
2026-04-25 21:48 37.42157 -5.89905 96 ft 4 kts
2026-04-25 21:48 37.42141 -5.89912 94 ft 0 kts 44°
2026-04-25 21:52 37.42141 -5.89911 94 ft 1 kts 44°
2026-04-25 21:52 37.42154 -5.89896 95 ft 5 kts 44°
2026-04-25 21:52 37.42190 -5.89851 94 ft 9 kts 45°
2026-04-25 21:53 37.42216 -5.89819 94 ft 6 kts 45°
2026-04-25 21:53 37.42257 -5.89766 96 ft 11 kts 48°
2026-04-25 21:53 37.42231 -5.89677 96 ft 14 kts 134°
2026-04-25 21:53 37.42155 -5.89578 96 ft 17 kts 134°
2026-04-25 21:54 37.42064 -5.89463 98 ft 20 kts 135°
2026-04-25 21:54 37.41982 -5.89310 101 ft 23 kts 92°
2026-04-25 21:54 37.41983 -5.89097 101 ft 25 kts 90°
2026-04-25 21:54 37.41984 -5.88875 102 ft 25 kts 89°
2026-04-25 21:55 37.41986 -5.88656 104 ft 25 kts 90°
2026-04-25 21:55 37.41984 -5.88442 105 ft 25 kts 90°
2026-04-25 21:55 37.41985 -5.88226 106 ft 25 kts 88°
2026-04-25 21:55 37.41987 -5.88012 107 ft 24 kts 91°
2026-04-25 21:56 37.41986 -5.87799 108 ft 24 kts 90°
2026-04-25 21:56 37.41987 -5.87657 109 ft 24 kts 90°
2026-04-25 21:56 37.41928 -5.87435 113 ft 19 kts 146°
2026-04-25 21:56 37.41816 -5.87447 116 ft 13 kts 213°
2026-04-25 21:57 37.41800 -5.87556 116 ft 15 kts 270°
2026-04-25 21:57 37.41800 -5.87755 112 ft 36 kts 269°
2026-04-25 21:57 37.41796 -5.88396 107 ft 107 kts 269°
2026-04-25 21:57 37.41792 -5.89588 99 ft 163 kts 269°
2026-04-25 21:58 37.41771 -5.91129 455 ft 179 kts 269°
2026-04-25 21:58 37.41898 -5.92697 1093 ft 184 kts 290°
2026-04-25 21:58 37.42658 -5.94007 1619 ft 191 kts 315°
2026-04-25 21:58 37.43695 -5.95162 1838 ft 212 kts 320°
2026-04-25 21:59 37.44914 -5.96432 2025 ft 237 kts 320°
2026-04-25 21:59 37.45780 -5.97342 2221 ft 252 kts 320°
2026-04-25 21:59 37.47581 -5.99292 3032 ft 262 kts 319°
2026-04-25 22:00 37.50329 -6.02400 4442 ft 269 kts 319°
2026-04-25 22:00 37.51719 -6.04012 5133 ft 273 kts 319°
2026-04-25 22:00 37.53121 -6.05656 5803 ft 278 kts 319°
2026-04-25 22:00 37.54544 -6.07333 6466 ft 283 kts 319°
2026-04-25 22:01 37.55517 -6.08480 6898 ft 285 kts 319°
2026-04-25 22:01 37.57056 -6.10069 7520 ft 287 kts 333°
2026-04-25 22:01 37.58943 -6.10853 8019 ft 289 kts 359°
2026-04-25 22:01 37.60257 -6.10777 8502 ft 284 kts 14°
2026-04-25 22:02 37.62577 -6.09401 9423 ft 279 kts 42°
2026-04-25 22:02 37.64044 -6.07790 10098 ft 280 kts 44°
2026-04-25 22:02 37.65544 -6.06117 10366 ft 298 kts 44°
2026-04-25 22:02 37.67149 -6.04322 10485 ft 318 kts 43°
2026-04-25 22:03 37.68857 -6.02413 10611 ft 337 kts 43°
2026-04-25 22:03 37.70660 -6.00400 10734 ft 355 kts 43°
2026-04-25 22:03 37.72542 -5.98308 11049 ft 364 kts 43°
2026-04-25 22:03 37.74462 -5.96182 11538 ft 368 kts 43°
2026-04-25 22:04 37.76395 -5.94037 12062 ft 372 kts 43°
2026-04-25 22:04 37.78351 -5.91865 12576 ft 375 kts 43°
2026-04-25 22:04 37.80317 -5.89678 13090 ft 378 kts 43°
2026-04-25 22:04 37.82300 -5.87470 13614 ft 381 kts 43°
2026-04-25 22:05 37.84294 -5.85240 14111 ft 384 kts 43°
2026-04-25 22:05 37.86307 -5.82988 14580 ft 387 kts 43°
2026-04-25 22:05 37.88335 -5.80725 15035 ft 390 kts 43°
2026-04-25 22:05 37.90350 -5.78470 15486 ft 393 kts 43°
2026-04-25 22:06 37.92406 -5.76167 15916 ft 396 kts 42°
2026-04-25 22:06 37.94474 -5.73846 16351 ft 399 kts 42°
2026-04-25 22:06 37.96556 -5.71502 16794 ft 402 kts 42°
2026-04-25 22:06 37.98652 -5.69146 17243 ft 404 kts 42°
2026-04-25 22:07 38.00759 -5.66776 17670 ft 406 kts 42°
2026-04-25 22:07 38.02189 -5.65167 17938 ft 408 kts 42°
2026-04-25 22:07 38.05022 -5.61985 18460 ft 412 kts 42°
2026-04-25 22:07 38.07173 -5.59564 18814 ft 415 kts 42°
2026-04-25 22:08 38.09337 -5.57121 19177 ft 417 kts 42°
2026-04-25 22:08 38.11513 -5.54664 19551 ft 419 kts 42°
2026-04-25 22:08 38.13698 -5.52198 19913 ft 421 kts 42°
2026-04-25 22:08 38.15893 -5.49718 20291 ft 424 kts 42°
2026-04-25 22:09 38.18103 -5.47221 20660 ft 426 kts 42°
2026-04-25 22:09 38.20322 -5.44714 21018 ft 428 kts 42°
2026-04-25 22:09 38.22554 -5.42189 21376 ft 430 kts 42°
2026-04-25 22:09 38.24793 -5.39649 21725 ft 432 kts 42°
2026-04-25 22:10 38.27044 -5.37092 22070 ft 435 kts 42°
2026-04-25 22:10 38.29308 -5.34520 22410 ft 437 kts 42°
2026-04-25 22:10 38.31581 -5.31936 22755 ft 439 kts 42°
2026-04-25 22:10 38.33859 -5.29347 23096 ft 441 kts 42°
2026-04-25 22:11 38.36152 -5.26733 23413 ft 443 kts 42°
2026-04-25 22:11 38.38455 -5.24105 23733 ft 445 kts 42°
2026-04-25 22:11 38.40767 -5.21464 24010 ft 447 kts 42°
2026-04-25 22:11 38.43090 -5.18811 24289 ft 449 kts 42°
2026-04-25 22:12 38.45428 -5.16152 24568 ft 451 kts 40°
2026-04-25 22:12 38.47947 -5.13843 24828 ft 453 kts 30°
2026-04-25 22:12 38.50795 -5.12106 25091 ft 455 kts 20°
2026-04-25 22:12 38.52847 -5.11306 25270 ft 457 kts 13°
2026-04-25 22:13 38.57033 -5.10673 25568 ft 460 kts
2026-04-25 22:13 38.60237 -5.10927 25793 ft 463 kts 356°
2026-04-25 22:13 38.63456 -5.11259 26030 ft 464 kts 356°
2026-04-25 22:13 38.66680 -5.11585 26259 ft 466 kts 356°
2026-04-25 22:14 38.69918 -5.11911 26476 ft 467 kts 356°
2026-04-25 22:14 38.73171 -5.12240 26688 ft 469 kts 356°
2026-04-25 22:14 38.76430 -5.12572 26887 ft 470 kts 356°
2026-04-25 22:14 38.79691 -5.12906 27081 ft 471 kts 356°
2026-04-25 22:15 38.82970 -5.13240 27325 ft 472 kts 355°
2026-04-25 22:15 38.86238 -5.13574 27584 ft 471 kts 355°
2026-04-25 22:15 38.89504 -5.13909 27848 ft 471 kts 355°
2026-04-25 22:16 38.96033 -5.14310 28376 ft 470 kts
2026-04-25 22:16 38.99262 -5.13713 28637 ft 469 kts 13°
2026-04-25 22:16 39.02376 -5.12469 28892 ft 469 kts 22°
2026-04-25 22:16 39.05301 -5.10610 29138 ft 469 kts 31°
2026-04-25 22:17 39.08021 -5.08384 29391 ft 469 kts 33°
2026-04-25 22:17 39.10767 -5.06114 29650 ft 469 kts 33°
2026-04-25 22:17 39.13507 -5.03850 29920 ft 468 kts 32°
2026-04-25 22:17 39.16248 -5.01581 30188 ft 468 kts 33°
2026-04-25 22:18 39.18984 -4.99314 30424 ft 467 kts 33°
2026-04-25 22:18 39.21718 -4.97044 30680 ft 466 kts 33°
2026-04-25 22:18 39.24439 -4.94784 30937 ft 465 kts 33°
2026-04-25 22:18 39.27149 -4.92528 31230 ft 463 kts 33°
2026-04-25 22:19 39.29845 -4.90279 31495 ft 461 kts 33°
2026-04-25 22:19 39.32541 -4.88029 31758 ft 460 kts 33°
2026-04-25 22:19 39.35228 -4.85785 32004 ft 459 kts 33°
2026-04-25 22:19 39.37902 -4.83553 32255 ft 458 kts 33°
2026-04-25 22:20 39.40579 -4.81319 32508 ft 457 kts 33°
2026-04-25 22:20 39.43243 -4.79096 32770 ft 455 kts 33°
2026-04-25 22:20 39.45900 -4.76877 33035 ft 454 kts 33°
2026-04-25 22:20 39.48548 -4.74660 33306 ft 452 kts 33°
2026-04-25 22:21 39.51185 -4.72447 33573 ft 451 kts 33°
2026-04-25 22:21 39.53806 -4.70243 33841 ft 449 kts 33°
2026-04-25 22:21 39.56425 -4.68040 34070 ft 449 kts 33°
2026-04-25 22:22 39.61675 -4.63624 34111 ft 450 kts 33°
2026-04-25 22:22 39.66924 -4.59210 34111 ft 449 kts 33°
2026-04-25 22:23 39.72177 -4.54779 34111 ft 450 kts 33°
2026-04-25 22:23 39.77430 -4.50326 34111 ft 451 kts 33°
2026-04-25 22:24 39.82693 -4.45860 34118 ft 452 kts 33°
2026-04-25 22:24 39.87960 -4.41390 34122 ft 452 kts 33°
2026-04-25 22:25 39.93225 -4.36912 34121 ft 452 kts 33°
2026-04-25 22:25 39.98626 -4.32718 34118 ft 452 kts 25°
2026-04-25 22:26 40.04300 -4.29281 34123 ft 453 kts 25°
2026-04-25 22:26 40.10019 -4.25792 34132 ft 454 kts 25°
2026-04-25 22:27 40.15745 -4.22287 34140 ft 454 kts 25°
2026-04-25 22:27 40.21471 -4.18777 34141 ft 455 kts 25°
2026-04-25 22:28 40.27205 -4.15261 34147 ft 455 kts 25°
2026-04-25 22:28 40.32945 -4.11741 34159 ft 455 kts 25°
2026-04-25 22:29 40.38678 -4.08214 34162 ft 455 kts 25°
2026-04-25 22:29 40.44414 -4.04675 34164 ft 456 kts 25°
2026-04-25 22:30 40.53031 -3.99322 34177 ft 457 kts 25°
2026-04-25 22:30 40.57845 -3.96340 34172 ft 457 kts 25°
2026-04-25 22:31 40.64547 -3.92203 34180 ft 457 kts 25°
2026-04-25 22:31 40.70301 -3.88630 34190 ft 457 kts 25°
2026-04-25 22:32 40.76048 -3.85046 34183 ft 457 kts 25°
2026-04-25 22:32 40.81795 -3.81451 34192 ft 457 kts 25°
2026-04-25 22:33 40.87557 -3.77850 34193 ft 460 kts 26°
2026-04-25 22:33 40.93371 -3.74207 34175 ft 463 kts 26°
2026-04-25 22:34 40.99173 -3.70558 34167 ft 465 kts 26°
2026-04-25 22:34 41.05033 -3.66872 34170 ft 466 kts 26°
2026-04-25 22:35 41.10895 -3.63178 34180 ft 467 kts 26°
2026-04-25 22:35 41.16777 -3.59495 34177 ft 468 kts 25°
2026-04-25 22:36 41.22788 -3.56141 34186 ft 469 kts 22°
2026-04-25 22:36 41.28863 -3.52964 34189 ft 469 kts 22°
2026-04-25 22:37 41.34923 -3.49724 34194 ft 469 kts 22°
2026-04-25 22:37 41.40926 -3.46431 34195 ft 469 kts 23°
2026-04-25 22:38 41.46963 -3.43088 34189 ft 469 kts 23°
2026-04-25 22:38 41.53002 -3.39756 34194 ft 470 kts 22°
2026-04-25 22:39 41.59050 -3.36428 34262 ft 469 kts 22°
2026-04-25 22:39 41.62052 -3.34773 34610 ft 465 kts 22°
2026-04-25 22:39 41.65023 -3.33133 34971 ft 460 kts 22°
2026-04-25 22:40 41.67972 -3.31502 35334 ft 456 kts 22°
2026-04-25 22:40 41.70897 -3.29881 35645 ft 454 kts 22°
2026-04-25 22:40 41.73814 -3.28261 35901 ft 453 kts 22°
2026-04-25 22:40 41.76731 -3.26638 36118 ft 453 kts 22°
2026-04-25 22:41 41.82602 -3.23367 36187 ft 462 kts 22°
2026-04-25 22:41 41.88572 -3.20038 36195 ft 466 kts 22°
2026-04-25 22:42 41.94570 -3.16692 36198 ft 467 kts 22°
2026-04-25 22:42 42.00539 -3.13350 36199 ft 468 kts 22°
2026-04-25 22:43 42.06550 -3.09985 36203 ft 468 kts 22°
2026-04-25 22:43 42.12568 -3.06601 36210 ft 469 kts 22°
2026-04-25 22:44 42.18586 -3.03208 36220 ft 469 kts 22°
2026-04-25 22:44 42.24617 -2.99809 36228 ft 469 kts 22°
2026-04-25 22:45 42.30649 -2.96403 36228 ft 470 kts 22°
2026-04-25 22:45 42.36683 -2.92987 36236 ft 470 kts 23°
2026-04-25 22:46 42.42711 -2.89538 36240 ft 470 kts 26°
2026-04-25 22:46 42.47309 -2.85673 36240 ft 468 kts 40°
2026-04-25 22:47 42.52978 -2.78873 36242 ft 468 kts 43°
2026-04-25 22:47 42.57065 -2.73951 36242 ft 469 kts 42°
2026-04-25 22:48 42.61917 -2.68111 36245 ft 469 kts 43°
2026-04-25 22:48 42.66788 -2.62213 36245 ft 469 kts 43°
2026-04-25 22:49 42.71651 -2.56306 36245 ft 469 kts 43°
2026-04-25 22:49 42.76518 -2.50383 36247 ft 469 kts 43°
2026-04-25 22:50 42.81374 -2.44462 36244 ft 469 kts 43°
2026-04-25 22:50 42.86236 -2.38529 36246 ft 469 kts 43°
2026-04-25 22:51 42.91097 -2.32590 36250 ft 469 kts 43°
2026-04-25 22:51 42.95948 -2.26630 36236 ft 469 kts 43°
2026-04-25 22:52 43.00792 -2.20664 36249 ft 469 kts 43°
2026-04-25 22:52 43.05608 -2.14714 36247 ft 470 kts 43°
2026-04-25 22:53 43.10455 -2.08715 36244 ft 470 kts 43°
2026-04-25 22:53 43.15313 -2.02710 36245 ft 471 kts 43°
2026-04-25 22:54 43.20173 -1.96683 36242 ft 471 kts 43°
2026-04-25 22:54 43.25022 -1.90653 36233 ft 471 kts 43°
2026-04-25 22:55 43.29884 -1.84615 36262 ft 471 kts 41°
2026-04-25 22:55 43.35364 -1.79698 36263 ft 472 kts 30°
2026-04-25 22:56 43.41020 -1.75089 36267 ft 472 kts 33°
2026-04-25 22:56 43.46511 -1.70103 36240 ft 472 kts 35°
2026-04-25 22:57 43.51937 -1.65026 36240 ft 472 kts 35°
2026-04-25 22:57 43.57372 -1.60046 36238 ft 472 kts 34°
2026-04-25 22:58 43.62854 -1.55094 36219 ft 463 kts 34°
2026-04-25 22:58 43.68182 -1.50263 36216 ft 460 kts 34°
2026-04-25 22:59 43.73586 -1.45342 36215 ft 469 kts 34°
2026-04-25 22:59 43.79049 -1.40356 36216 ft 471 kts 34°
2026-04-25 23:00 43.84511 -1.35349 36218 ft 471 kts 34°
2026-04-25 23:00 43.89970 -1.30331 36218 ft 471 kts 34°
2026-04-25 23:01 43.95440 -1.25292 36233 ft 472 kts 34°
2026-04-25 23:01 44.00911 -1.20240 36238 ft 472 kts 34°
2026-04-25 23:02 44.06378 -1.15184 36237 ft 472 kts 34°
2026-04-25 23:02 44.11847 -1.10123 36228 ft 472 kts 34°
2026-04-25 23:03 44.17317 -1.05031 36232 ft 472 kts 34°
2026-04-25 23:03 44.22785 -0.99944 36229 ft 472 kts 34°
2026-04-25 23:04 44.28222 -0.94886 36238 ft 472 kts 34°
2026-04-25 23:04 44.33686 -0.89784 36245 ft 472 kts 34°
2026-04-25 23:05 44.39160 -0.84692 36242 ft 472 kts 30°
2026-04-25 23:05 44.45104 -0.80781 36244 ft 472 kts 23°
2026-04-25 23:06 44.51125 -0.77121 36247 ft 471 kts 23°
2026-04-25 23:06 44.57136 -0.73449 36247 ft 471 kts 23°
2026-04-25 23:07 44.63130 -0.69777 36253 ft 470 kts 23°
2026-04-25 23:07 44.69125 -0.66093 36241 ft 470 kts 23°
2026-04-25 23:08 44.75105 -0.62404 36244 ft 469 kts 23°
2026-04-25 23:08 44.81092 -0.58718 36244 ft 469 kts 23°
2026-04-25 23:09 44.87029 -0.55052 36245 ft 469 kts 23°
2026-04-25 23:09 44.93000 -0.51353 36244 ft 469 kts 23°
2026-04-25 23:10 44.98966 -0.47650 36243 ft 468 kts 23°
2026-04-25 23:10 45.04859 -0.43982 36205 ft 450 kts 21°
2026-04-25 23:11 45.10574 -0.40416 36211 ft 449 kts 21°
2026-04-25 23:11 45.16287 -0.36849 36208 ft 449 kts 21°
2026-04-25 23:12 45.21999 -0.33277 36210 ft 448 kts 21°
2026-04-25 23:12 45.27705 -0.29700 36207 ft 448 kts 21°
2026-04-25 23:13 45.33372 -0.26132 36213 ft 448 kts 21°
2026-04-25 23:13 45.39118 -0.22513 36221 ft 449 kts 21°
2026-04-25 23:14 45.44824 -0.18904 36218 ft 449 kts 22°
2026-04-25 23:14 45.50527 -0.15286 36219 ft 449 kts 22°
2026-04-25 23:15 45.56201 -0.11688 36222 ft 449 kts 21°
2026-04-25 23:15 45.61906 -0.08059 36224 ft 449 kts 22°
2026-04-25 23:16 45.67612 -0.04416 36223 ft 448 kts 22°
2026-04-25 23:16 45.73310 -0.00778 36229 ft 448 kts 22°
2026-04-25 23:17 45.79018 0.02867 36220 ft 449 kts 22°
2026-04-25 23:17 45.84723 0.06532 36218 ft 449 kts 22°
2026-04-25 23:18 45.90427 0.10210 36217 ft 450 kts 22°
2026-04-25 23:18 45.96139 0.13897 36217 ft 450 kts 22°
2026-04-25 23:19 46.01842 0.17588 36222 ft 449 kts 22°
2026-04-25 23:19 46.07544 0.21273 36218 ft 449 kts 22°
2026-04-25 23:20 46.13232 0.24954 36215 ft 448 kts 22°
2026-04-25 23:20 46.18884 0.28633 36219 ft 448 kts 22°
2026-04-25 23:21 46.24560 0.32344 36212 ft 447 kts 22°
2026-04-25 23:21 46.30223 0.36049 36210 ft 446 kts 22°
2026-04-25 23:22 46.35880 0.39747 36206 ft 446 kts 22°
2026-04-25 23:23 46.44346 0.45313 36217 ft 446 kts 22°
2026-04-25 23:23 46.49990 0.49026 36214 ft 445 kts 22°
2026-04-25 23:24 46.55653 0.52674 36214 ft 444 kts 18°
2026-04-25 23:24 46.61614 0.54889 36216 ft 441 kts 11°
2026-04-25 23:25 46.67606 0.56844 36210 ft 441 kts 11°
2026-04-25 23:25 46.73596 0.58819 36206 ft 441 kts 11°
2026-04-25 23:26 46.79580 0.60804 36204 ft 441 kts 11°
2026-04-25 23:26 46.85573 0.62796 36195 ft 441 kts 11°
2026-04-25 23:27 46.91518 0.64784 36206 ft 441 kts 11°
2026-04-25 23:27 46.97501 0.66778 36209 ft 441 kts 11°
2026-04-25 23:28 47.03463 0.68895 36199 ft 442 kts 17°
2026-04-25 23:28 47.08964 0.72952 36194 ft 445 kts 29°
2026-04-25 23:29 47.14255 0.77663 36206 ft 445 kts 29°
2026-04-25 23:29 47.19548 0.82382 36213 ft 445 kts 29°
2026-04-25 23:30 47.24836 0.87130 36217 ft 445 kts 30°
2026-04-25 23:30 47.30128 0.91873 36215 ft 445 kts 29°
2026-04-25 23:31 47.35392 0.96590 36211 ft 445 kts 29°
2026-04-25 23:31 47.40686 1.01354 36204 ft 446 kts 30°
2026-04-25 23:32 47.45978 1.06145 36209 ft 446 kts 30°
2026-04-25 23:32 47.51276 1.10920 36203 ft 446 kts 28°
2026-04-25 23:33 47.56704 1.15342 36210 ft 445 kts 25°
2026-04-25 23:33 47.62220 1.19495 36213 ft 445 kts 25°
2026-04-25 23:34 47.66799 1.22978 36209 ft 445 kts 25°
2026-04-25 23:34 47.72292 1.27266 36222 ft 446 kts 26°
2026-04-25 23:35 47.77766 1.31593 36212 ft 446 kts 26°
2026-04-25 23:35 47.83248 1.35940 36219 ft 446 kts 26°
2026-04-25 23:36 47.88731 1.40293 36221 ft 447 kts 26°
2026-04-25 23:36 47.94223 1.44649 36217 ft 447 kts 26°
2026-04-25 23:37 47.99723 1.49001 36214 ft 447 kts 26°
2026-04-25 23:37 48.05214 1.53376 36210 ft 448 kts 26°
2026-04-25 23:38 48.10671 1.57746 36215 ft 448 kts 26°
2026-04-25 23:38 48.16172 1.62152 36211 ft 448 kts 26°
2026-04-25 23:39 48.21673 1.66556 36227 ft 448 kts 26°
2026-04-25 23:39 48.27176 1.70976 36223 ft 449 kts 26°
2026-04-25 23:40 48.32679 1.75422 36228 ft 449 kts 26°
2026-04-25 23:40 48.38182 1.79870 36229 ft 449 kts 26°
2026-04-25 23:41 48.43686 1.84337 36236 ft 450 kts 26°
2026-04-25 23:41 48.49200 1.88822 36236 ft 450 kts 26°
2026-04-25 23:42 48.54720 1.93304 36238 ft 450 kts 26°
2026-04-25 23:42 48.60240 1.97797 36239 ft 451 kts 26°
2026-04-25 23:43 48.65767 2.02320 36247 ft 451 kts 26°
2026-04-25 23:43 48.71155 2.07193 36241 ft 454 kts 37°
2026-04-25 23:44 48.75348 2.14362 36238 ft 459 kts 57°
2026-04-25 23:44 48.76787 2.18685 36238 ft 461 kts 68°
2026-04-25 23:44 48.77750 2.23329 36239 ft 463 kts 73°
2026-04-25 23:45 48.79452 2.32747 36234 ft 463 kts 73°
2026-04-25 23:45 48.81141 2.42189 36235 ft 464 kts 73°
2026-04-25 23:46 48.82819 2.51660 36235 ft 464 kts 73°
2026-04-25 23:46 48.84493 2.61128 36238 ft 465 kts 73°
2026-04-25 23:47 48.86161 2.70612 36247 ft 465 kts 73°
2026-04-25 23:47 48.87826 2.80104 36247 ft 465 kts 73°
2026-04-25 23:48 48.89484 2.89608 36245 ft 465 kts 73°
2026-04-25 23:48 48.91131 2.99112 36243 ft 465 kts 74°
2026-04-25 23:49 48.92767 3.08628 36248 ft 465 kts 74°
2026-04-25 23:49 48.94403 3.18147 36247 ft 466 kts 74°
2026-04-25 23:50 48.96029 3.27688 36244 ft 466 kts 74°
2026-04-25 23:50 48.97644 3.37258 36246 ft 467 kts 74°
2026-04-25 23:51 48.99252 3.46833 36244 ft 467 kts 75°
2026-04-25 23:51 49.00853 3.56418 36248 ft 468 kts 75°
2026-04-25 23:52 49.02456 3.66029 36240 ft 469 kts 75°
2026-04-25 23:52 49.04049 3.75616 36256 ft 469 kts 75°
2026-04-25 23:53 49.05647 3.85262 36253 ft 469 kts 75°
2026-04-25 23:53 49.07230 3.94927 36252 ft 470 kts 75°
2026-04-25 23:54 49.08803 4.04600 36252 ft 470 kts 75°
2026-04-25 23:54 49.10374 4.14283 36251 ft 470 kts 75°
2026-04-25 23:55 49.11929 4.23966 36250 ft 470 kts 75°
2026-04-25 23:55 49.13474 4.33665 36249 ft 469 kts 75°
2026-04-25 23:56 49.15740 4.42992 36234 ft 468 kts 66°
2026-04-25 23:56 49.18232 4.52129 36225 ft 470 kts 66°
2026-04-25 23:57 49.20726 4.61380 36220 ft 471 kts 66°
2026-04-25 23:57 49.23218 4.70653 36243 ft 471 kts 66°
2026-04-25 23:58 49.25708 4.79928 36248 ft 471 kts 66°
2026-04-25 23:58 49.28184 4.89225 36254 ft 471 kts 67°
2026-04-25 23:59 49.30657 4.98543 36242 ft 472 kts 67°
2026-04-25 23:59 49.33131 5.07874 36246 ft 473 kts 67°
2026-04-26 00:00 49.35601 5.17227 36244 ft 474 kts 67°
2026-04-26 00:00 49.38050 5.26547 36246 ft 474 kts 67°
2026-04-26 00:01 49.40507 5.35932 36255 ft 474 kts 67°
2026-04-26 00:01 49.42959 5.45342 36255 ft 474 kts 67°
2026-04-26 00:02 49.45403 5.54746 36250 ft 474 kts 67°
2026-04-26 00:02 49.47831 5.64171 36253 ft 474 kts 67°
2026-04-26 00:03 49.50571 5.73341 36251 ft 471 kts 56°
2026-04-26 00:03 49.54788 5.80955 36249 ft 466 kts 38°
2026-04-26 00:04 49.60053 5.86691 36255 ft 463 kts 31°
2026-04-26 00:04 49.65458 5.92126 36253 ft 463 kts 31°
2026-04-26 00:05 49.70828 5.97515 36251 ft 463 kts 31°
2026-04-26 00:05 49.76238 6.02945 36247 ft 463 kts 31°
2026-04-26 00:06 49.81636 6.08397 36263 ft 463 kts 31°
2026-04-26 00:06 49.87104 6.13635 36261 ft 460 kts 23°
2026-04-26 00:07 49.92931 6.17721 36262 ft 459 kts 22°
2026-04-26 00:07 49.98753 6.21834 36245 ft 459 kts 22°
2026-04-26 00:08 50.04544 6.26078 36254 ft 459 kts 24°
2026-04-26 00:08 50.10307 6.30350 36247 ft 458 kts 23°
2026-04-26 00:09 50.16063 6.34601 36247 ft 458 kts 23°
2026-04-26 00:09 50.21822 6.38845 36246 ft 457 kts 23°
2026-04-26 00:10 50.27552 6.43119 36255 ft 456 kts 27°
2026-04-26 00:10 50.30154 6.45944 36241 ft 457 kts 40°
2026-04-26 00:10 50.32293 6.49629 36241 ft 459 kts 53°
2026-04-26 00:10 50.33867 6.53974 36241 ft 461 kts 66°
2026-04-26 00:11 50.34793 6.58774 36243 ft 462 kts 80°
2026-04-26 00:11 50.35010 6.63781 36238 ft 462 kts 93°
2026-04-26 00:11 50.34716 6.68787 36235 ft 462 kts 95°
2026-04-26 00:12 50.34069 6.78738 36233 ft 463 kts 95°
2026-04-26 00:12 50.32773 6.88592 36237 ft 463 kts 110°
2026-04-26 00:13 50.30140 6.97802 36230 ft 464 kts 115°
2026-04-26 00:13 50.27409 7.06946 36230 ft 464 kts 115°
2026-04-26 00:14 50.24680 7.16113 36234 ft 465 kts 115°
2026-04-26 00:14 50.21942 7.25263 36233 ft 465 kts 115°
2026-04-26 00:15 50.19209 7.34427 36233 ft 466 kts 113°
2026-04-26 00:15 50.16829 7.43824 36210 ft 467 kts 109°
2026-04-26 00:16 50.14677 7.53388 36208 ft 467 kts 109°
2026-04-26 00:16 50.12481 7.62928 36209 ft 468 kts 110°
2026-04-26 00:17 50.09589 7.71955 36209 ft 467 kts 126°
2026-04-26 00:17 50.05881 7.80180 36218 ft 468 kts 125°
2026-04-26 00:18 50.02315 7.88667 36206 ft 469 kts 114°
2026-04-26 00:18 50.01269 7.93441 36204 ft 467 kts 99°
2026-04-26 00:18 50.00991 7.96811 36203 ft 465 kts 90°
2026-04-26 00:18 50.01221 8.01792 36201 ft 461 kts 76°
2026-04-26 00:19 50.02156 8.06536 36195 ft 458 kts 66°
2026-04-26 00:19 50.04422 8.15810 36194 ft 459 kts 66°
2026-04-26 00:20 50.06688 8.25126 36217 ft 460 kts 66°
2026-04-26 00:20 50.08935 8.34471 36223 ft 461 kts 66°
2026-04-26 00:21 50.11183 8.43818 36216 ft 461 kts 66°
2026-04-26 00:21 50.13430 8.53179 36219 ft 461 kts 67°
2026-04-26 00:22 50.15664 8.62539 36222 ft 460 kts 67°
2026-04-26 00:22 50.17889 8.71911 36219 ft 460 kts 67°
2026-04-26 00:23 50.20089 8.81216 36217 ft 460 kts 67°
2026-04-26 00:23 50.22296 8.90604 36214 ft 460 kts 67°
2026-04-26 00:24 50.24489 8.99989 36211 ft 460 kts 67°
2026-04-26 00:24 50.26674 9.09387 36213 ft 460 kts 67°
2026-04-26 00:25 50.28873 9.18856 36226 ft 460 kts 67°
2026-04-26 00:25 50.31036 9.28200 36225 ft 459 kts 67°
2026-04-26 00:26 50.33190 9.37605 36219 ft 458 kts 68°
2026-04-26 00:26 50.35275 9.47034 36215 ft 458 kts 68°
2026-04-26 00:27 50.37320 9.56546 36211 ft 458 kts 68°
2026-04-26 00:27 50.39345 9.66008 36208 ft 458 kts 68°
2026-04-26 00:28 50.41364 9.75406 36219 ft 458 kts 68°
2026-04-26 00:28 50.43399 9.84861 36214 ft 457 kts 68°
2026-04-26 00:29 50.45418 9.94316 36230 ft 457 kts 68°
2026-04-26 00:29 50.47422 10.03770 36216 ft 456 kts 68°
2026-04-26 00:30 50.49412 10.13238 36209 ft 456 kts 68°
2026-04-26 00:30 50.51396 10.22694 36211 ft 456 kts 68°
2026-04-26 00:31 50.53376 10.32146 36215 ft 456 kts 68°
2026-04-26 00:31 50.55347 10.41620 36211 ft 455 kts 68°
2026-04-26 00:32 50.57315 10.51095 36212 ft 455 kts 68°
2026-04-26 00:32 50.60238 10.65309 36212 ft 455 kts 68°
2026-04-26 00:33 50.62165 10.74736 36212 ft 455 kts 68°
2026-04-26 00:33 50.64101 10.84240 36219 ft 456 kts 68°
2026-04-26 00:34 50.66029 10.93749 36217 ft 456 kts 68°
2026-04-26 00:34 50.67955 11.03302 36211 ft 457 kts 68°
2026-04-26 00:35 50.69877 11.12871 36211 ft 458 kts 68°
2026-04-26 00:35 50.71797 11.22463 36211 ft 459 kts 68°
2026-04-26 00:36 50.73711 11.32075 36225 ft 459 kts 68°
2026-04-26 00:36 50.75609 11.41701 36220 ft 460 kts 68°
2026-04-26 00:37 50.77504 11.51348 36230 ft 460 kts 68°
2026-04-26 00:37 50.79400 11.61010 36212 ft 460 kts 68°
2026-04-26 00:38 50.81286 11.70678 36205 ft 460 kts 68°
2026-04-26 00:38 50.83164 11.80357 36205 ft 461 kts 68°
2026-04-26 00:39 50.85037 11.90063 36215 ft 461 kts 68°
2026-04-26 00:39 50.86890 11.99728 36202 ft 462 kts 68°
2026-04-26 00:40 50.88746 12.09468 36203 ft 462 kts 68°
2026-04-26 00:40 50.90600 12.19223 36193 ft 463 kts 68°
2026-04-26 00:41 50.92445 12.28992 36193 ft 463 kts 68°
2026-04-26 00:41 50.94282 12.38774 36191 ft 463 kts 68°
2026-04-26 00:42 50.96118 12.48566 36185 ft 464 kts 68°
2026-04-26 00:42 50.97949 12.58401 36184 ft 464 kts 68°
2026-04-26 00:43 50.99767 12.68235 36186 ft 465 kts 68°
2026-04-26 00:43 51.01581 12.78095 36185 ft 465 kts 68°
2026-04-26 00:44 51.03379 12.87913 36199 ft 466 kts 68°
2026-04-26 00:44 51.05183 12.97806 36184 ft 466 kts 68°
2026-04-26 00:45 51.06975 13.07711 36178 ft 467 kts 68°
2026-04-26 00:45 51.08772 13.17695 36143 ft 466 kts 67°
2026-04-26 00:46 51.10539 13.27540 36144 ft 466 kts 67°
2026-04-26 00:46 51.12312 13.37477 36145 ft 467 kts 68°
2026-04-26 00:47 51.14084 13.47510 36162 ft 468 kts 67°
2026-04-26 00:47 51.15838 13.57513 36156 ft 469 kts 68°
2026-04-26 00:48 51.17585 13.67459 36157 ft 469 kts 67°
2026-04-26 00:48 51.19334 13.77490 36159 ft 470 kts 68°
2026-04-26 00:49 51.21071 13.87538 36160 ft 470 kts 68°
2026-04-26 00:49 51.22800 13.97574 36137 ft 467 kts 67°
2026-04-26 00:50 51.24505 14.07546 36116 ft 466 kts 67°
2026-04-26 00:50 51.26211 14.17530 36120 ft 467 kts 67°
2026-04-26 00:51 51.27909 14.27544 36127 ft 467 kts 67°
2026-04-26 00:51 51.29585 14.37574 36132 ft 468 kts 67°
2026-04-26 00:52 51.31266 14.47624 36147 ft 468 kts 67°
2026-04-26 00:52 51.33017 14.57630 36128 ft 461 kts 59°
2026-04-26 00:53 51.34620 14.61879 36126 ft 435 kts 38°
2026-04-26 00:53 51.36934 14.64719 36153 ft 410 kts 17°
2026-04-26 00:53 51.39603 14.65847 36122 ft 389 kts 356°
2026-04-26 00:53 51.42232 14.65272 36104 ft 380 kts 343°
2026-04-26 00:54 51.47515 14.64962 36084 ft 398 kts 12°
2026-04-26 00:54 51.49974 14.67194 36080 ft 420 kts 33°
2026-04-26 00:54 51.51828 14.70964 36076 ft 445 kts 54°
2026-04-26 00:55 51.52885 14.75669 36071 ft 463 kts 69°
2026-04-26 00:55 51.53212 14.80905 36067 ft 478 kts 80°
2026-04-26 00:55 51.53396 14.91598 36064 ft 481 kts 80°
2026-04-26 00:56 51.53583 15.02355 36063 ft 483 kts 80°
2026-04-26 00:56 51.53773 15.13161 36097 ft 485 kts 80°
2026-04-26 00:57 51.53971 15.24026 36099 ft 488 kts 79°
2026-04-26 00:57 51.54175 15.34947 36092 ft 490 kts 79°
2026-04-26 00:58 51.54381 15.45903 36078 ft 491 kts 79°
2026-04-26 00:58 51.54588 15.56795 36076 ft 491 kts 79°
2026-04-26 00:59 51.54798 15.67785 36055 ft 493 kts 79°
2026-04-26 00:59 51.55012 15.78817 36038 ft 494 kts 79°
2026-04-26 01:00 51.55228 15.89862 36045 ft 495 kts 79°
2026-04-26 01:00 51.55666 16.00833 36044 ft 482 kts 68°
2026-04-26 01:01 51.55980 16.11707 36054 ft 512 kts 99°
2026-04-26 01:01 51.54572 16.17038 36033 ft 526 kts 120°
2026-04-26 01:01 51.52170 16.21486 36008 ft 531 kts 141°
2026-04-26 01:02 51.46125 16.28101 35998 ft 531 kts 134°
2026-04-26 01:02 51.43868 16.32728 35998 ft 524 kts 113°
2026-04-26 01:02 51.42641 16.38113 35996 ft 507 kts 92°
2026-04-26 01:03 51.42545 16.43585 35996 ft 482 kts 70°
2026-04-26 01:03 51.43452 16.48609 35994 ft 463 kts 58°
2026-04-26 01:03 51.45743 16.58327 36002 ft 469 kts 58°
2026-04-26 01:04 51.48053 16.68166 35993 ft 473 kts 58°
2026-04-26 01:04 51.49975 16.76404 35988 ft 476 kts 59°
2026-04-26 01:05 51.52287 16.86398 35994 ft 478 kts 59°
2026-04-26 01:05 51.54587 16.96446 36032 ft 480 kts 59°
2026-04-26 01:06 51.56869 17.06535 36007 ft 481 kts 59°
2026-04-26 01:06 51.59134 17.16671 36015 ft 483 kts 59°
2026-04-26 01:07 51.61394 17.26895 35982 ft 486 kts 59°
2026-04-26 01:07 51.63642 17.37182 35983 ft 488 kts 60°
2026-04-26 01:08 51.65868 17.47506 35970 ft 489 kts 60°
2026-04-26 01:08 51.68076 17.57891 35980 ft 490 kts 60°
2026-04-26 01:09 51.70257 17.68308 35963 ft 490 kts 60°
2026-04-26 01:09 51.72408 17.78752 35962 ft 492 kts 60°
2026-04-26 01:10 51.74547 17.89276 35960 ft 495 kts 60°
2026-04-26 01:10 51.76666 17.99866 35948 ft 496 kts 61°
2026-04-26 01:11 51.78746 18.10434 35956 ft 498 kts 61°
2026-04-26 01:11 51.80812 18.21120 35954 ft 499 kts 62°
2026-04-26 01:12 51.82853 18.31870 35963 ft 501 kts 63°
2026-04-26 01:12 51.84853 18.42622 35905 ft 499 kts 63°
2026-04-26 01:13 51.86820 18.53418 35906 ft 501 kts 64°
2026-04-26 01:13 51.88759 18.64275 35893 ft 503 kts 64°
2026-04-26 01:14 51.90667 18.75191 35910 ft 504 kts 64°
2026-04-26 01:14 51.92539 18.86150 35912 ft 505 kts 65°
2026-04-26 01:15 51.94365 18.97104 35928 ft 507 kts 66°
2026-04-26 01:15 51.96164 19.08173 35913 ft 509 kts 67°
2026-04-26 01:16 51.97923 19.19297 35895 ft 510 kts 67°
2026-04-26 01:16 51.99637 19.30473 35893 ft 511 kts 68°
2026-04-26 01:17 52.01301 19.41675 35883 ft 511 kts 68°
2026-04-26 01:17 52.02916 19.52931 35885 ft 512 kts 69°
2026-04-26 01:18 52.04473 19.64210 35874 ft 512 kts 69°
2026-04-26 01:18 52.05973 19.75549 35873 ft 513 kts 70°
2026-04-26 01:19 52.07402 19.86893 35841 ft 510 kts 71°
2026-04-26 01:19 52.08755 19.98222 35836 ft 510 kts 71°
2026-04-26 01:20 52.09747 20.03673 35841 ft 493 kts 55°
2026-04-26 01:20 52.11601 20.08069 35835 ft 467 kts 35°
2026-04-26 01:20 52.14146 20.11051 35817 ft 439 kts 14°
2026-04-26 01:20 52.16997 20.12251 35808 ft 412 kts 353°
2026-04-26 01:21 52.22690 20.12408 35792 ft 424 kts
2026-04-26 01:21 52.25449 20.14436 35796 ft 450 kts 27°
2026-04-26 01:21 52.27713 20.18119 35825 ft 474 kts 48°
2026-04-26 01:22 52.29152 20.23065 35806 ft 495 kts 69°
2026-04-26 01:22 52.29558 20.28716 35782 ft 509 kts 87°
2026-04-26 01:22 52.29293 20.40349 35767 ft 514 kts 87°
2026-04-26 01:23 52.29086 20.52057 35778 ft 517 kts 86°
2026-04-26 01:23 52.28949 20.63746 35762 ft 519 kts 86°
2026-04-26 01:24 52.28880 20.75606 35783 ft 520 kts 86°
2026-04-26 01:24 52.28881 20.87426 35789 ft 520 kts 85°
2026-04-26 01:25 52.28950 20.99245 35798 ft 521 kts 85°
2026-04-26 01:25 52.29086 21.11071 35799 ft 521 kts 84°
2026-04-26 01:26 52.29286 21.22806 35800 ft 521 kts 84°
2026-04-26 01:26 52.29553 21.34624 35843 ft 521 kts 84°
2026-04-26 01:27 52.29710 21.40519 35740 ft 518 kts 84°
2026-04-26 01:27 52.29881 21.46382 35727 ft 515 kts 83°
2026-04-26 01:27 52.30268 21.58089 35729 ft 516 kts 83°
2026-04-26 01:28 52.30719 21.69805 35741 ft 517 kts 82°
2026-04-26 01:28 52.31232 21.81534 35730 ft 517 kts 82°
2026-04-26 01:29 52.31805 21.93268 35731 ft 518 kts 82°
2026-04-26 01:29 52.32438 22.05011 35740 ft 519 kts 81°
2026-04-26 01:30 52.33128 22.16756 35735 ft 519 kts 81°
2026-04-26 01:30 52.33868 22.28414 35736 ft 519 kts 80°
2026-04-26 01:31 52.34665 22.40137 35731 ft 519 kts 80°
2026-04-26 01:31 52.35508 22.51813 35699 ft 515 kts 80°
2026-04-26 01:32 52.36394 22.63438 35695 ft 515 kts 79°
2026-04-26 01:32 52.37329 22.75087 35705 ft 516 kts 79°
2026-04-26 01:33 52.38302 22.86730 35706 ft 517 kts 79°
2026-04-26 01:33 52.39306 22.98379 35694 ft 517 kts 79°
2026-04-26 01:34 52.39552 23.10104 35698 ft 521 kts 104°
2026-04-26 01:34 52.38220 23.15569 35690 ft 516 kts 124°
2026-04-26 01:34 52.35944 23.20007 35682 ft 505 kts 145°
2026-04-26 01:35 52.33007 23.22967 35674 ft 492 kts 162°
2026-04-26 01:35 52.29891 23.25290 35665 ft 496 kts 154°
2026-04-26 01:35 52.27163 23.28824 35662 ft 508 kts 134°
2026-04-26 01:35 52.25236 23.33662 35639 ft 513 kts 113°
2026-04-26 01:36 52.24334 23.39291 35642 ft 514 kts 93°
2026-04-26 01:36 52.24565 23.45059 35644 ft 508 kts 72°
2026-04-26 01:37 52.28200 23.61159 35644 ft 509 kts 65°
2026-04-26 01:37 52.30657 23.72048 35651 ft 512 kts 66°
2026-04-26 01:38 52.33049 23.83032 35694 ft 514 kts 67°
2026-04-26 01:38 52.35372 23.94111 35688 ft 515 kts 68°
2026-04-26 01:39 52.37617 24.05252 35665 ft 516 kts 69°
2026-04-26 01:39 52.39782 24.16455 35664 ft 517 kts 70°
2026-04-26 01:40 52.41857 24.27666 35666 ft 518 kts 71°
2026-04-26 01:40 52.43862 24.39003 35661 ft 518 kts 71°
2026-04-26 01:41 52.45778 24.50378 35642 ft 516 kts 72°
2026-04-26 01:41 52.47599 24.61758 35644 ft 516 kts 73°
2026-04-26 01:42 52.49334 24.73192 35629 ft 517 kts 74°
2026-04-26 01:42 52.50984 24.84704 35629 ft 518 kts 75°
2026-04-26 01:43 52.52543 24.96263 35625 ft 519 kts 76°
2026-04-26 01:43 52.54009 25.07876 35629 ft 519 kts 77°
2026-04-26 01:44 52.55378 25.19528 35622 ft 519 kts 78°
2026-04-26 01:44 52.56634 25.31096 35619 ft 517 kts 79°
2026-04-26 01:45 52.57797 25.42774 35625 ft 518 kts 79°
2026-04-26 01:45 52.58343 25.48580 35571 ft 505 kts 79°
2026-04-26 01:45 52.58870 25.54231 35594 ft 496 kts 80°
2026-04-26 01:46 52.59808 25.65346 35601 ft 485 kts 82°
2026-04-26 01:46 52.60219 25.70788 35595 ft 467 kts 76°
2026-04-26 01:46 52.61312 25.75587 35593 ft 435 kts 51°
2026-04-26 01:46 52.63293 25.78981 35533 ft 394 kts 20°
2026-04-26 01:47 52.65733 25.80178 35239 ft 347 kts 344°
2026-04-26 01:47 52.67812 25.78837 34486 ft 314 kts 304°
2026-04-26 01:47 52.68619 25.75636 33027 ft 316 kts 264°
2026-04-26 01:47 52.67724 25.72179 30689 ft 361 kts 230°
2026-04-26 01:48 52.65345 25.70009 27322 ft 436 kts 198°
2026-04-26 01:48 52.62096 25.70723 23773 ft 520 kts 162°
2026-04-26 01:48 52.59301 25.74961 19223 ft 586 kts 124°
2026-04-26 01:48 52.58177 25.81520 13510 ft 615 kts 92°
2026-04-26 01:49 52.58915 25.88333 7727 ft 615 kts 64°
2026-04-26 01:49 52.61343 25.94050 2196 ft 597 kts 40°
2026-04-26 01:49 52.63045 25.96209 952 ft 100 kts 35°
2026-04-26 01:49 52.63153 25.96411 554 ft 0 kts 356°
2026-04-26 01:51 52.63154 25.96411 554 ft 0 kts 358°
2026-04-26 02:02 52.63154 25.96412 539 ft 1 kts 352°
2026-04-26 02:03 52.63152 25.96411 539 ft 0 kts 347°
2026-04-26 02:03 52.63152 25.96410 539 ft 0 kts 351°
2026-04-26 02:13 52.63153 25.96410 542 ft 0 kts 352°
2026-04-26 02:17 52.63153 25.96411 542 ft 0 kts 357°
2026-04-26 02:18 52.63153 25.96412 542 ft 0 kts 360°
2026-04-26 02:22 52.63153 25.96411 542 ft 0 kts 358°
2026-04-26 02:24 52.63154 25.96411 542 ft 0 kts 358°
2026-04-26 02:35 52.63149 25.96409 568 ft 3 kts 355°
2026-04-26 02:35 52.63150 25.96409 569 ft 0 kts 356°
2026-04-26 02:36 52.63150 25.96408 569 ft 0 kts 358°